Location: Molveno
(46.1500°N, 10.9667°E)
Time: 01:43:38
(UTC+00:00)

Cosmos 1825 Rocket - Pass Details

Date: 05 July 2020
Orbit: 603 x 631 km, 82.5° (Epoch: 11 August)

Event Time Altitude Azimuth Distance (km) Brightness Sun altitude
Exits shadow 20:10:14 - 176° (S) 2,487 6.2 -8.8°
Reaches altitude 10° 20:11:27 10° 174° (S) 1,994 5.7 -8.9°
Maximum altitude 20:15:48 60° 95° (E) 722 3.7 -9.4°
Drops below altitude 10° 20:20:14 10° 16° (NNE) 2,021 6.7 -9.9°
Sets 20:22:30 0° 13° (NNE) 2,936 7.6 -10.2°
